Regional Weather Roundup
Issued by NWS

Home | Current Version | Previous Version | Graphics & Text | Print | Product List | Glossary On
Versions: 1 2 3 4 5 6 7 8 9 10 11 12 13 14 15 16 17 18 19 20 21 22 23 24 25 26 27 28 29 30 31 32 33 34 35 36 37 38 39 40 41 42 43 44 45 46 47 48 49 50
000
ASUS45 KTFX 171819
RWRMT
MONTANA HOURLY WEATHER ROUNDUP
NATIONAL WEATHER SERVICE GREAT FALLS MT
1119 AM MST WED DEC 17 2014

NOTE: "FAIR" INDICATES FEW OR NO CLOUDS BELOW 12000 FEET WITH NO
SIGNIFICANT WEATHER AND/OR OBSTRUCTIONS TO VISIBILITY.

* THESE STATIONS ARE NOT UNDER NWS QUALITY CONTROL. THEY DO NOT
   REPORT WEATHER SUCH AS PRECIPITATION OR FOG.

MTZ001>007-043-171900-
WEST OF THE DIVIDE
CITY           SKY/WX    TMP DP  RH WIND       PRES   REMARKS
KALISPELL      CLOUDY    28  25  89 CALM      29.98S
MISSOULA       PTCLDY    32  23  69 CALM      30.00S
BUTTE          CLOUDY    27  25  92 CALM      29.94S
MULLAN PASS    SUNNY     28  27  96 VRB3      29.86S
* ANACONDA     PTCLDY    34  25  70 S5         N/A   WCI  29
* ESSEX        N/A       25  22  88 N1         N/A
* EUREKA APT   SUNNY     30  25  82 CALM      30.01S
* HAMILTON APT PTCLDY    34  23  64 CALM      29.96F
* LIBBY APT    SUNNY     34  27  76 CALM       N/A
* LINCOLN      N/A       26  21  81 N/A        N/A
* LOOKOUT PASS N/A       27  25  92 SE2        N/A
* POLSON       N/A       30  28  92 N1         N/A
* RONAN APT    PTCLDY    30  28  92 N/A        N/A
* SEELEY LAKE  N/A       26  22  85 N/A        N/A
* THOMP F APT  SUNNY     26  22  85 S4         N/A
$$

MTZ008-052>055-171900-
SOUTHWEST MONTANA
CITY           SKY/WX    TMP DP  RH WIND       PRES   REMARKS
BOZEMAN        FOG       28  25  89 CALM      29.96F
DILLON         CLOUDY    27  25  92 CALM      29.96R
* W YELLOWSTON PTCLDY    28  24  85 SW1        N/A
* THREE FORKS  PTSUNNY   28   5  37 N/A        N/A
* TWIN BRIDGES PTSUNNY   28  25  89 N/A        N/A
* BOULDER HILL N/A       28  23  81 SW8        N/A   WCI  20
* MONIDA PASS  N/A       23  23 100 SE12       N/A   WCI  11
* RAYNOLDS PAS N/A       25  10  53 S9         N/A   WCI  16
* WHITEHALL    N/A       31  28  89 N4         N/A
* WISE RIVER   N/A       23  18  81 N/A        N/A
$$

MTZ009>010-012-014-046-048-049-054-171900-
EAST SLOPES AND CENTRAL MONTANA
CITY           SKY/WX    TMP DP  RH WIND       PRES   REMARKS
CUT BANK       FOG       18  18 100 CALM      29.87F VSB M1/4
GREAT FALLS    CLOUDY    32  28  85 SW8       29.89S WCI  25
HELENA         CLOUDY    30  25  82 CALM      29.96F
MALMSTROM AFB  CLOUDY    27  27 100 SE1       29.92S
* CONRAD       PTCLDY    14  10  84 CALM       N/A
* DEARBORN     N/A       35  28  76 S8         N/A   WCI  28
* EAST GLACIER N/A       34  22  61 W14G27     N/A   WCI  24
* MONARCH      N/A       32  20  61 S8G13      N/A   WCI  25
* PENDROY      N/A       29  29 100 W3         N/A
* ROGERS PASS  N/A       28  22  78 SE5        N/A   WCI  22
* SWEET GRASS  N/A       21  21 100 S15        N/A   WCI   7
* WHITE SULPH  N/A       32  27  82 S10        N/A   WCI  24
$$

MTZ011-013-016-021-035-040-045-047-050-051-171900-
NORTH CENTRAL MONTANA
CITY           SKY/WX    TMP DP  RH WIND       PRES   REMARKS
HAVRE          CLOUDY    25  21  85 E3        29.96F
LEWISTOWN      LGT SNOW  30  27  89 E5        29.90F WCI  25
* N BAR RANCH  FOG       27  25  92 CALM      29.91S
* CHINOOK      PTCLDY    25  21  85 E9        29.97F WCI  16
* CHESTER      N/A       24  22  92 S3         N/A
* DENTON       N/A       29  28  96 N/A        N/A
* GEYSER       N/A       32  32 100 N/A        N/A
* JUDITH GAP   N/A       27  26  96 S2         N/A
* LOMA         N/A       27  23  85 E8         N/A   WCI  19
$$

MTZ017>020-022>027-061-062-171900-
NORTHEAST MONTANA
CITY           SKY/WX    TMP DP  RH WIND       PRES   REMARKS
GLASGOW        CLOUDY    19  16  88 E15       30.04F WCI   5
GLENDIVE       CLOUDY    21  16  81 SE9       30.08F WCI  11
JORDAN         PTSUNNY   25  19  78 SE8       30.00F WCI  16
SIDNEY         CLOUDY    19  16  88 SE12      30.14F WCI   6
WOLF POINT     CLOUDY    19  16  88 SE5       30.11F WCI  12
* BEAVER HILL  N/A       17  15  92 SE11       N/A   WCI   4
* CIRCLE       N/A       21  18  88 SE7        N/A   WCI  12
* LINDSAY DVD  N/A       18  16  92 SE6        N/A   WCI  10
* NAVAJO       N/A       14  12  92 S11        N/A   WCI   1
* PLENTYWOOD A PTCLDY    18  14  84 S14       30.11F WCI   4
* POPLAR APT   PTSUNNY   18  14  84 SE7       30.11F WCI   9
* SACO         N/A       20  18  92 E12        N/A   WCI   8
$$

MTZ028>042-056>058-171900-
SOUTHCENTRAL AND SOUTHEAST MONTANA
CITY           SKY/WX    TMP DP  RH WIND       PRES   REMARKS
BAKER          CLOUDY    18  16  92 SE15      30.05F WCI   4
BILLINGS       LGT SNOW  25  21  85 SW17      29.95F WCI  12
LIVINGSTON     CLOUDY    37  27  67 SW18      29.93S WCI  27
MILES CITY     PTSUNNY   23  18  81 S10       30.03F WCI  13
* FORSYTH APT  PTCLDY    23  19  85 E5        30.01F WCI  16
* LAUREL APT   PTCLDY    28  19  69 SW11G16    N/A   WCI  18
* ROUNDUP APT  CLOUDY    28  21  75 N/A        N/A
* ALZADA       N/A       17  15  92 SE4        N/A
* HYSHAM       N/A       24  18  78 W2         N/A
* LAME DEER    N/A       22  20  92 W1         N/A
* REED POINT   N/A       27  22  81 E2         N/A
* ROSCOE HILL  N/A       32  17  54 SE5        N/A   WCI  27
$$

REGIONAL REPORTS...DAKOTAS
CITY           SKY/WX    TMP DP  RH WIND       PRES   REMARKS
WILLISTON      CLOUDY    19  12  74 SE13G18   30.15F WCI   6
DICKINSON      LGT SNOW  18  12  77 SE17      30.10F VSB 2    WCI   3
BEACH          CLOUDY    16  16 100 N/A       30.09F
CROSBY         CLOUDY    18  14  84 S12       30.16F WCI   5
TIOGA          LGT SNOW  16  16 100 S12       30.17F VSB 3    WCI   3
WATFORD CITY   CLOUDY    19  12  74 SE15      30.11F WCI   5
BISMARCK       CLOUDY    16   9  74 S7        30.27F WCI   6
GRAND FORKS    SUNNY     12   7  80 N3        30.38F
FARGO          HAZE     N/A N/A N/A N/A       30.37F
BUFFALO SD     PTCLDY    18  16  92 SE12      29.98F WCI   5
RAPID CITY     CLOUDY    21  18  88 SE9       30.03F WCI  11
$$

REGIONAL REPORTS...WYOMING/IDAHO/WASHINGTON
CITY           SKY/WX    TMP DP  RH WIND       PRES   REMARKS
GILLETTE       SUNNY     19  16  88 CALM      29.94F
SHERIDAN       HAZE      18  12  77 NW3       29.96S
CODY           PTSUNNY   27  23  85 CALM      29.91F
YELLOWSTONE LA PTCLDY    25  19  78 CALM      29.96F
SALMON         PTSUNNY   28  27  96 CALM      30.01F
MULLAN PASS    SUNNY     28  27  96 VRB3      29.86S
SAND POINT     CLOUDY    34  30  85 N3        29.98R
SPOKANE        CLOUDY    34  30  85 NE9       29.92R WCI  27
$$

REGIONAL REPORTS...ALBERTA
CITY           SKY/WX    TMP DP  RH WIND       PRES   REMARKS
CALGARY        PTCLDY    25  18  75 SW3       29.78F
LETHBRIDGE     PTCLDY    25  21  85 S18       29.82F WCI  11
MEDICINE HAT   PTSUNNY   18  16  92 S3        29.90F
EDMONTON       CLOUDY    21  19  92 S10       29.85F WCI  10
WATERTON GATE  N/A       36  25  64 SW20G28    N/A   WCI  25
CARDSTON       N/A       30  27  89 S5         N/A   WCI  25
MILK RIVER     N/A       19  19 100 SW5        N/A   WCI  12
$$

REGIONAL REPORTS...SASKATCHEWAN
CITY           SKY/WX    TMP DP  RH WIND       PRES   REMARKS
SWIFT CURRENT  FOG       18  16  92 S24       29.93F
MOOSE JAW      PTSUNNY   18  14  84 SE13      30.09F WCI   5
REGINA         CLOUDY    18  14  84 S17       30.12F WCI   3
VAL MARIE      N/A       18  18 100 S9         N/A   WCI   7
ASSINIBOIA     N/A       16  12  84 S10        N/A   WCI   4
CORONACH       N/A       16  14  92 SE12       N/A   WCI   3

$$




USA.gov is the U.S. government's official web portal to all federal, state and local government web resources and services.